Precipitable_Water
1.67 1.76 1.78 1.78 1.76 1.58 1.42 1.42 1.38 1.32 1.26 1.12 0.99 0.84 0.72 0.64 0.63 0.66 0.67 0.70 0.72 0.68 0.65 0.64 0.64 0.70 0.70 0.71 0.78 0.77 0.79 0.83 0.85 1.08 1.22 1.20 1.17 1.09 0.98 0.93 0.91 0.94 1.01
1.67 1.70 1.66 1.73 1.74 1.53 1.49 1.48 1.45 1.38 1.26 1.09 0.94 0.82 0.74 0.66 0.66 0.67 0.69 0.73 0.69 0.71 0.73 0.72 0.72 0.75 0.76 0.77 0.80 0.83 0.86 0.87 0.84 1.07 1.07 0.92 0.91 0.98 0.99 1.02 1.02 1.02 1.02
1.64 1.68 1.69 1.67 1.62 1.50 1.50 1.51 1.45 1.37 1.18 1.03 0.91 0.82 0.71 0.66 0.66 0.68 0.71 0.73 0.75 0.78 0.75 0.74 0.74 0.73 0.75 0.78 0.83 0.85 0.87 0.89 0.87 0.89 0.86 0.74 0.75 0.82 0.84 0.87 0.94 0.98 1.00
1.65 1.71 1.71 1.62 1.55 1.54 1.56 1.53 1.45 1.31 1.10 0.96 0.86 0.79 0.68 0.68 0.71 0.74 0.75 0.77 0.79 0.78 0.76 0.72 0.71 0.72 0.74 0.80 0.83 0.85 0.92 0.94 0.97 0.92 0.84 0.83 0.80 0.74 0.75 0.81 0.83 0.83 0.85
1.66 1.70 1.67 1.57 1.57 1.60 1.58 1.54 1.41 1.19 1.00 0.89 0.82 0.73 0.69 0.74 0.79 0.77 0.77 0.81 0.79 0.78 0.75 0.74 0.77 0.75 0.75 0.78 0.85 0.80 0.86 0.87 0.85 0.83 0.87 0.89 0.88 0.78 0.75 0.76 0.79 0.79 0.76
1.59 1.66 1.58 1.57 1.62 1.64 1.63 1.54 1.30 1.07 0.96 0.90 0.80 0.74 0.78 0.80 0.79 0.79 0.81 0.81 0.79 0.78 0.76 0.77 0.84 0.83 0.79 0.77 0.80 0.79 0.81 0.81 0.80 0.82 0.83 0.87 0.87 0.88 0.71 0.72 0.73 0.70 0.67
1.69 1.67 1.66 1.69 1.71 1.73 1.69 1.46 1.24 1.11 1.01 0.83 0.75 0.72 0.77 0.76 0.77 0.78 0.78 0.78 0.79 0.80 0.81 0.81 0.87 0.88 0.84 0.85 0.84 0.77 0.78 0.81 0.80 0.80 0.81 0.80 0.80 0.81 0.75 0.71 0.75 0.75 0.73
1.74 1.77 1.84 1.86 1.86 1.82 1.59 1.39 1.26 1.10 0.86 0.69 0.65 0.72 0.73 0.71 0.74 0.78 0.80 0.79 0.80 0.84 0.82 0.81 0.86 0.92 0.91 0.90 0.91 0.89 0.81 0.80 0.82 0.76 0.77 0.78 0.79 0.78 0.76 0.75 0.75 0.80 0.83
1.74 1.84 1.78 1.76 1.68 1.59 1.55 1.37 1.16 0.93 0.68 0.55 0.62 0.70 0.74 0.76 0.77 0.77 0.78 0.81 0.83 0.81 0.78 0.85 0.91 0.98 0.97 0.99 0.96 0.91 0.84 0.84 0.75 0.72 0.74 0.80 0.82 0.80 0.77 0.77 0.80 0.83 0.84
1.68 1.72 1.60 1.55 1.48 1.46 1.42 1.31 0.99 0.76 0.55 0.56 0.70 0.75 0.76 0.75 0.76 0.77 0.76 0.80 0.82 0.82 0.90 0.94 0.97 1.01 1.00 0.98 0.97 0.91 0.83 0.80 0.73 0.70 0.73 0.78 0.81 0.83 0.77 0.77 0.75 0.74 0.78
1.58 1.66 1.54 1.49 1.49 1.54 1.42 1.14 0.91 0.72 0.65 0.71 0.79 0.79 0.90 0.95 0.95 0.86 0.83 0.90 0.95 0.95 1.00 1.03 1.07 1.07 0.99 0.97 0.94 0.89 0.83 0.77 0.72 0.68 0.70 0.73 0.73 0.79 0.78 0.74 0.69 0.66 0.65
1.16 1.37 1.42 1.37 1.26 1.36 1.21 0.99 0.75 0.65 0.71 0.85 0.95 0.96 1.00 1.05 1.06 1.02 0.97 1.00 1.03 1.07 1.11 1.07 1.07 0.97 0.91 0.88 0.87 0.85 0.80 0.70 0.64 0.65 0.65 0.64 0.65 0.72 0.75 0.71 0.69 0.66 0.64
1.00 1.07 1.26 1.31 1.30 1.22 0.96 0.71 0.67 0.75 0.92 1.01 1.04 1.10 1.09 1.06 1.09 1.07 1.09 1.07 1.10 1.04 0.99 0.96 0.94 0.88 0.81 0.77 0.79 0.76 0.67 0.60 0.58 0.56 0.60 0.59 0.61 0.62 0.69 0.69 0.73 0.72 0.68
0.93 1.01 1.12 1.17 1.11 0.99 0.80 0.72 0.82 0.87 1.04 1.08 1.15 1.16 1.12 1.08 1.10 1.06 1.06 1.04 0.99 0.98 0.95 0.93 0.85 0.80 0.77 0.77 0.72 0.61 0.56 0.54 0.50 0.51 0.55 0.59 0.58 0.59 0.63 0.71 0.76 0.75 0.68
0.91 0.93 0.98 1.04 1.01 0.91 0.83 0.88 0.96 1.09 1.13 1.17 1.16 1.18 1.16 1.08 1.05 0.99 0.94 0.92 0.93 0.93 0.88 0.76 0.68 0.67 0.65 0.61 0.58 0.57 0.54 0.51 0.50 0.49 0.50 0.51 0.55 0.60 0.65 0.71 0.69 0.68 0.67
0.92 0.96 1.05 1.04 1.02 0.98 0.98 1.00 1.09 1.20 1.22 1.20 1.16 1.09 1.06 1.01 0.96 0.90 0.92 0.92 0.84 0.75 0.67 0.60 0.58 0.57 0.57 0.58 0.56 0.55 0.48 0.47 0.49 0.49 0.49 0.48 0.53 0.56 0.61 0.67 0.65 0.64 0.65
0.92 0.98 1.00 1.00 1.03 1.00 1.00 1.08 1.17 1.27 1.23 1.07 1.03 1.04 0.98 0.99 0.92 0.90 0.83 0.72 0.64 0.59 0.60 0.61 0.61 0.60 0.57 0.55 0.53 0.52 0.47 0.47 0.45 0.43 0.43 0.43 0.52 0.59 0.63 0.62 0.60 0.61 0.61
0.91 0.90 0.95 0.99 1.01 1.05 1.05 1.10 1.17 1.16 1.06 1.01 1.02 0.96 0.88 0.83 0.79 0.70 0.63 0.57 0.61 0.64 0.64 0.62 0.59 0.55 0.56 0.56 0.49 0.45 0.46 0.44 0.41 0.38 0.37 0.36 0.35 0.49 0.58 0.58 0.57 0.55 0.54
0.85 0.87 0.92 0.97 0.98 1.03 1.08 1.11 1.05 1.06 0.96 0.88 0.82 0.76 0.72 0.67 0.64 0.62 0.61 0.63 0.67 0.65 0.64 0.60 0.57 0.56 0.50 0.45 0.43 0.43 0.45 0.40 0.38 0.37 0.34 0.33 0.33 0.36 0.41 0.49 0.44 0.42 0.43
0.90 0.90 0.98 0.99 1.02 1.04 1.05 1.02 0.98 0.89 0.79 0.75 0.71 0.65 0.60 0.59 0.64 0.64 0.63 0.64 0.66 0.65 0.60 0.54 0.49 0.45 0.40 0.40 0.39 0.38 0.38 0.39 0.37 0.35 0.33 0.32 0.32 0.34 0.35 0.35 0.37 0.37 0.39
0.94 0.86 0.98 1.02 1.05 1.05 0.98 0.90 0.88 0.77 0.71 0.71 0.67 0.62 0.60 0.60 0.62 0.63 0.64 0.65 0.65 0.59 0.50 0.46 0.42 0.39 0.37 0.38 0.36 0.37 0.38 0.38 0.35 0.34 0.33 0.32 0.30 0.30 0.29 0.30 0.32 0.33 0.32
0.91 0.96 1.03 1.05 1.06 1.05 0.99 0.93 0.90 0.77 0.74 0.67 0.65 0.61 0.62 0.63 0.66 0.66 0.63 0.59 0.58 0.55 0.47 0.45 0.43 0.39 0.39 0.41 0.36 0.35 0.29 0.31 0.32 0.33 0.31 0.29 0.27 0.27 0.26 0.28 0.28 0.28 0.29
0.91 1.00 1.05 1.07 1.07 1.07 1.02 0.97 0.90 0.78 0.73 0.66 0.63 0.62 0.63 0.63 0.64 0.62 0.58 0.53 0.49 0.46 0.39 0.37 0.39 0.39 0.36 0.40 0.41 0.36 0.29 0.25 0.29 0.33 0.30 0.28 0.29 0.30 0.28 0.27 0.27 0.26 0.27
0.89 1.02 1.10 1.13 1.08 1.07 1.04 0.96 0.89 0.72 0.65 0.66 0.65 0.63 0.62 0.63 0.61 0.60 0.58 0.53 0.46 0.41 0.39 0.41 0.41 0.39 0.41 0.39 0.42 0.41 0.39 0.35 0.26 0.24 0.29 0.30 0.31 0.29 0.26 0.25 0.25 0.26 0.28
0.97 1.07 1.10 1.11 1.10 1.07 1.07 1.00 0.89 0.76 0.74 0.72 0.66 0.59 0.61 0.61 0.59 0.58 0.57 0.53 0.47 0.45 0.45 0.45 0.44 0.44 0.46 0.43 0.40 0.37 0.36 0.34 0.33 0.28 0.23 0.26 0.28 0.27 0.26 0.24 0.22 0.23 0.25
1.08 1.11 1.16 1.07 1.10 1.10 1.09 1.02 0.87 0.78 0.74 0.68 0.64 0.62 0.62 0.61 0.61 0.59 0.57 0.52 0.51 0.53 0.51 0.48 0.47 0.46 0.42 0.41 0.39 0.38 0.34 0.32 0.30 0.29 0.27 0.27 0.26 0.26 0.27 0.24 0.25 0.24 0.25
Wind_Speed
16 17 17 16 16 16 14 13 11 9 7 5 3 1 0 1 3 3 3 4 5 6 7 7 8 8 8 8 8 9 8 7 6 5 5 6 7 8 7 7 7 7 7
17 18 17 17 17 16 14 13 11 9 7 5 4 2 1 3 3 4 5 6 6 7 7 7 8 8 9 9 9 9 8 7 6 5 6 8 8 7 7 7 7 7 7
17 19 19 18 18 17 15 13 12 10 8 6 4 3 3 3 4 5 6 7 6 6 7 7 8 8 9 9 11 10 8 7 6 6 7 8 8 8 8 8 7 8 8
20 20 20 20 21 19 17 15 13 11 9 7 5 5 4 5 5 7 7 6 6 5 5 7 8 9 9 9 11 11 8 8 7 7 7 8 9 9 8 8 8 9 9
20 22 22 21 20 19 18 16 14 12 9 8 6 6 5 6 6 8 8 6 5 4 4 6 7 9 10 10 11 11 9 8 8 8 8 9 9 9 9 9 9 10 10
23 23 23 21 20 20 19 18 15 12 9 9 8 7 7 7 8 9 7 6 4 3 4 5 7 9 10 11 11 12 11 9 8 9 10 10 9 10 10 10 10 10 10
21 22 22 21 20 19 20 18 15 12 10 9 9 9 8 8 9 8 7 5 3 1 3 6 8 10 11 11 12 13 12 10 10 11 11 11 11 11 12 12 12 11 11
19 19 18 20 20 19 21 17 14 12 10 11 11 10 9 8 8 7 6 4 1 2 5 7 9 11 11 12 13 14 14 12 12 13 13 13 13 13 14 15 14 14 14
13 16 15 17 22 24 19 16 13 12 12 13 11 10 9 9 8 6 4 2 2 4 7 9 10 11 13 13 14 14 15 13 14 15 15 15 15 16 17 17 16 16 16
15 17 13 19 17 18 18 15 14 13 13 12 11 10 9 8 6 4 3 3 5 6 9 11 12 12 15 15 15 15 16 16 17 17 17 18 18 18 19 19 19 18 17
15 15 15 12 16 15 14 14 12 13 13 12 11 10 8 6 4 3 3 5 7 9 11 13 14 16 16 18 18 17 18 18 20 21 21 21 22 21 21 20 20 20 20
12 14 14 17 14 15 13 11 11 12 12 11 9 8 7 5 3 3 5 8 10 11 13 14 15 17 17 18 17 18 19 21 23 23 24 24 24 24 23 23 23 22 22
15 15 17 16 13 14 12 10 11 11 11 9 8 7 4 3 4 5 7 9 10 11 12 14 16 16 18 17 18 19 20 22 24 25 25 25 25 25 25 25 24 23 23
14 14 14 13 10 11 12 10 10 11 9 6 6 4 3 4 5 7 9 9 10 12 13 15 16 17 18 18 20 21 23 23 24 24 24 24 25 26 25 25 24 24 24
12 12 11 11 11 11 11 10 9 9 8 6 5 3 4 6 7 8 8 9 11 13 14 16 18 19 20 21 23 24 25 25 26 26 26 27 27 27 26 26 26 26 25
12 12 12 12 12 11 11 9 8 8 7 4 2 4 6 6 7 8 9 10 12 14 16 18 19 20 22 23 25 26 26 26 26 27 28 28 28 28 27 27 27 27 27
12 13 13 12 11 10 9 8 7 7 5 3 4 5 4 5 6 7 9 11 13 16 18 19 21 23 24 25 26 26 26 26 27 27 27 27 27 26 26 26 27 28 29
13 13 12 11 10 9 8 6 5 4 4 6 5 4 4 5 6 8 10 13 16 18 20 22 23 24 26 27 27 26 26 26 26 26 26 26 26 26 26 27 28 29 31
12 11 10 10 9 8 6 5 4 5 5 4 3 3 5 6 8 10 13 15 18 21 23 25 26 27 27 27 27 27 27 27 26 26 26 26 27 26 27 30 32 34 36
11 11 10 10 8 7 5 5 4 4 4 4 4 6 7 8 10 13 16 19 21 23 26 27 28 28 28 29 28 27 27 26 27 26 27 28 28 29 31 34 37 39 41
9 11 11 10 9 8 7 6 5 5 5 6 7 8 10 11 14 16 20 22 25 27 29 29 29 30 30 30 28 28 28 27 27 29 30 30 31 33 35 38 40 41 43
10 11 11 11 10 10 9 8 8 7 7 8 10 11 13 15 17 20 23 25 28 29 30 31 31 31 31 30 29 29 28 29 29 30 33 33 35 36 39 41 43 44 46
12 12 13 13 12 12 12 10 9 9 10 11 13 15 16 17 20 23 25 28 30 31 31 32 32 31 31 31 30 29 29 30 33 33 35 35 38 40 42 44 45 46 47
14 14 14 15 14 14 14 14 13 13 13 14 15 17 18 20 23 25 28 30 32 32 32 32 32 31 31 31 31 31 32 33 35 38 39 40 41 43 45 45 46 47 47
15 15 15 16 15 16 16 17 17 16 17 17 17 19 21 23 25 28 30 32 32 32 31 31 31 31 32 32 33 34 36 37 38 39 41 42 43 44 45 45 47 47 48
16 15 15 14 15 17 18 18 20 19 18 19 20 22 24 26 29 30 31 33 34 32 33 32 33 33 34 35 35 36 37 38 40 41 42 43 44 44 45 44 45 46 47
Wind_Direction
214 212 209 212 214 214 214 213 211 209 214 220 242 269 258 155 131 116 103 95 88 82 72 62 51 43 35 26 16 11 5 1 1 3 4 350 343 338 335 332 326 326 326
214 212 213 207 214 207 208 206 208 212 211 224 232 227 193 164 154 142 125 113 100 88 72 58 45 36 29 21 12 8 8 7 8 8 357 352 348 350 347 339 328 325 323
211 210 214 213 202 200 205 210 207 205 210 217 216 213 196 178 166 155 138 126 108 90 73 53 39 31 24 17 12 10 9 13 11 1 354 353 349 342 338 337 333 326 322
215 216 213 206 212 213 212 210 208 207 210 216 212 210 192 180 165 157 146 135 116 95 69 48 35 27 19 13 9 8 10 7 3 352 348 345 344 339 333 330 327 321 317
216 215 213 215 212 211 209 207 205 202 207 209 199 188 174 168 162 155 151 143 124 97 64 38 25 16 12 7 2 1 359 352 346 346 344 343 342 340 334 328 324 321 317
221 217 212 209 208 206 203 198 196 196 199 197 191 179 171 163 160 157 155 149 135 97 45 20 9 5 3 1 353 353 347 343 341 338 335 336 335 335 335 329 324 321 318
211 206 206 204 200 198 194 194 193 198 199 191 180 171 165 161 157 161 163 158 139 60 359 351 347 349 350 350 347 347 348 342 334 330 326 325 324 322 323 324 320 317 317
201 196 188 186 191 194 183 186 186 187 184 175 168 167 167 162 164 169 165 158 190 322 335 340 338 339 335 340 341 337 335 330 327 325 320 315 315 314 314 315 313 310 308
182 177 169 169 167 164 174 180 177 176 170 168 168 168 168 164 167 173 173 207 290 321 324 327 330 333 335 327 329 331 333 327 324 319 314 312 309 307 307 308 306 304 303
170 154 142 147 159 164 156 161 163 164 163 164 165 164 166 167 173 187 208 270 301 308 319 322 322 319 325 324 322 320 321 320 320 319 315 309 305 304 303 303 300 299 299
199 204 197 178 166 161 160 158 157 157 157 161 163 166 169 173 185 198 255 289 302 306 311 315 316 318 318 316 311 311 313 315 313 312 310 306 304 301 301 301 300 297 295
153 171 175 170 165 164 159 157 152 155 155 158 161 165 173 176 218 266 285 296 301 308 309 313 314 318 319 319 315 312 311 311 310 307 305 304 303 300 297 297 296 294 292
146 142 146 150 154 150 146 144 144 147 153 159 163 168 187 225 262 280 294 301 307 311 314 318 320 320 321 321 320 317 314 313 311 307 304 303 301 300 295 294 293 293 291
155 153 154 156 154 155 152 148 146 152 158 161 167 177 220 253 280 291 299 303 309 312 316 318 320 319 320 319 318 316 315 314 313 311 307 303 303 300 297 295 292 291 290
154 156 153 149 150 147 146 146 149 151 154 159 174 215 258 278 286 293 301 306 310 313 315 317 317 317 316 316 315 315 314 312 311 309 307 304 301 298 295 291 291 290 289
160 159 156 153 150 147 145 149 158 166 161 168 221 276 282 285 293 298 301 308 312 314 315 316 315 314 314 313 312 312 312 311 310 308 306 305 300 297 294 291 290 290 288
163 160 162 160 159 161 158 156 155 173 187 225 285 291 284 288 296 300 306 311 313 314 314 314 313 312 311 311 311 310 310 310 309 309 309 308 304 298 295 293 292 290 289
163 163 160 166 165 165 170 174 179 190 228 276 283 282 293 298 302 305 308 312 313 315 314 313 312 312 311 310 309 309 310 310 310 311 311 311 310 304 298 297 295 294 291
170 171 169 170 176 179 186 197 212 249 258 266 267 288 297 303 301 306 310 312 313 314 315 313 311 311 310 309 309 308 308 309 310 310 311 311 310 307 304 299 298 296 294
177 182 182 183 187 197 208 223 244 246 245 253 270 290 297 303 306 309 312 313 313 313 313 312 311 310 310 308 307 307 306 306 308 308 308 308 307 306 304 302 299 296 294
188 190 196 200 210 217 220 220 236 244 257 272 282 293 298 302 306 310 311 311 311 312 312 312 311 311 309 308 306 306 304 303 305 306 307 306 305 304 304 303 301 297 296
201 209 213 218 225 226 231 241 256 249 270 280 288 296 299 301 305 309 314 314 312 310 311 311 310 309 308 308 305 305 304 301 302 305 305 304 304 304 304 303 300 298 296
217 222 226 232 234 233 240 248 253 259 275 284 290 297 301 301 308 310 312 314 314 312 311 310 310 308 307 307 306 303 303 301 303 303 304 305 305 304 304 304 302 300 297
228 231 235 240 239 239 247 249 250 262 275 283 289 295 299 302 307 309 311 313 314 313 311 310 310 308 307 306 305 304 302 301 302 303 303 304 306 306 306 305 304 302 300
233 236 238 242 246 247 250 254 255 265 276 282 288 293 297 302 305 309 311 313 313 313 312 311 310 309 308 306 304 303 302 302 302 302 301 303 304 306 306 306 306 303 301
238 241 243 245 249 251 254 258 258 266 275 282 288 293 297 301 304 307 309 311 313 309 310 309 309 308 307 305 304 303 303 303 303 303 302 303 304 305 306 306 307 306 303